Fresno, CA

3:47 PM PDT on May 26, 2018 (GMT -0700)
Fresno Yosemite International

Weather History for KFAT - March, 2013

Change the Weather History Date:

Saturday, March 9, 2013

  Actual Average Record
Temperature  
Mean Temperature 55 °F 56 °F  
Max Temperature 61 °F 67 °F 86 °F (1946)
Min Temperature 48 °F 45 °F 32 °F (1950)
Degree Days  
Heating Degree Days 10    
Month to date heating degree days 60  
Since 1 July heating degree days 1652  
Cooling Degree Days 0    
Month to date cooling degree days 0  
Year to date cooling degree days 0  
Growing Degree Days 4 (Base 50)    
Moisture  
Dew Point 42 °F    
Average Humidity 66    
Maximum Humidity 86    
Minimum Humidity 46    
Precipitation  
Precipitation 0.00 in 0.07 in 0.79 in (1995)
Month to date precipitation 0.32 0.64  
Year to date precipitation 1.79 4.86  
Since 1 July precipitation 5.18  
Snow  
Snow 0.00 in - - ()
Month to date snowfall 0.0  
Since 1 July snowfall 0.0  
Snow Depth 0.00 in    
Sea Level Pressure  
Sea Level Pressure 30.22 in    
Wind  
Wind Speed 4 mph (North)    
Max Wind Speed 13 mph    
Max Gust Speed 16 mph    
Visibility 10 miles    
Events      
T = Trace of Precipitation, MM = Missing Value Source: NWS Daily Summary

Daily Weather History Graph

Daily Weather History Graph

Search for Another Location

Airport or City:

Astronomy

Mar. 09, 2013 Rise Set
Actual Time 6:17 AM PST 6:01 PM PST
Civil Twilight 5:52 AM PST 6:26 PM PST
Nautical Twilight 5:22 AM PST 6:56 PM PST
Astronomical Twilight 4:52 AM PST 7:27 PM PST
Moon 4:42 AM PST (3/9) 4:10 PM PST (3/9)
Length of Visible Light 12h 34m
Length of Day
11h 43m
Waning Crescent, 5% of the Moon is Illuminated
Mar 9
Waning Crescent
Mar 11
New
Mar 19
First Quarter
Mar 27
Full
Apr 2
Last Quarter

Hourly Weather History & Observations

Time (PST) Temp. Dew Point Humidity Pressure Visibility Wind Dir Wind Speed Gust Speed Precip Events Conditions
12:53 AM 48.9 °F 44.1 °F 83% 30.09 in 10.0 mi SE 3.5 mph - N/A   Overcast
1:53 AM 48.9 °F 44.1 °F 83% 30.09 in 10.0 mi Calm Calm - N/A   Overcast
2:53 AM 48.9 °F 44.1 °F 83% 30.09 in 9.0 mi Calm Calm - N/A   Overcast
3:53 AM 48.2 °F 44.6 °F 87% 30.11 in 10.0 mi Calm Calm - N/A   Overcast
4:53 AM 50.0 °F 45.0 °F 83% 30.13 in 10.0 mi Calm Calm - N/A   Overcast
5:53 AM 48.9 °F 41.0 °F 74% 30.16 in 10.0 mi North 3.5 mph - N/A   Overcast
6:53 AM 48.0 °F 39.9 °F 74% 30.19 in 10.0 mi NNW 3.5 mph - N/A   Overcast
7:53 AM 48.9 °F 39.9 °F 71% 30.21 in 10.0 mi NNW 5.8 mph - N/A   Overcast
8:53 AM 51.1 °F 41.0 °F 68% 30.22 in 10.0 mi WNW 8.1 mph - N/A   Overcast
9:53 AM 53.1 °F 42.1 °F 66% 30.23 in 10.0 mi WNW 10.4 mph - N/A   Mostly Cloudy
10:53 AM 55.9 °F 43.0 °F 62% 30.24 in 10.0 mi NW 8.1 mph - N/A   Mostly Cloudy
11:53 AM 57.0 °F 42.1 °F 57% 30.25 in 10.0 mi WNW 8.1 mph - N/A   Overcast
12:53 PM 57.9 °F 41.0 °F 53% 30.25 in 10.0 mi WNW 5.8 mph - N/A   Mostly Cloudy
1:53 PM 59.0 °F 41.0 °F 51% 30.25 in 10.0 mi NW 5.8 mph - N/A   Mostly Cloudy
2:53 PM 60.1 °F 39.9 °F 47% 30.25 in 10.0 mi Calm Calm - N/A   Mostly Cloudy
3:53 PM 61.0 °F 41.0 °F 48% 30.25 in 10.0 mi NW 5.8 mph - N/A   Mostly Cloudy
4:53 PM 60.1 °F 39.9 °F 47% 30.26 in 10.0 mi Calm Calm - N/A   Mostly Cloudy
5:53 PM 59.0 °F 41.0 °F 51% 30.27 in 10.0 mi East 6.9 mph - N/A   Scattered Clouds
6:53 PM 57.0 °F 42.1 °F 57% 30.27 in 10.0 mi East 5.8 mph - N/A   Partly Cloudy
7:53 PM 53.1 °F 45.0 °F 74% 30.30 in 10.0 mi SE 8.1 mph - N/A   Clear
8:53 PM 52.0 °F 45.0 °F 77% 30.30 in 9.0 mi SE 6.9 mph - N/A   Clear
9:53 PM 50.0 °F 44.1 °F 80% 30.31 in 8.0 mi SE 4.6 mph - N/A   Clear
10:53 PM 48.9 °F 43.0 °F 80% 30.32 in 8.0 mi SE 5.8 mph - N/A   Partly Cloudy
11:53 PM 48.9 °F 43.0 °F 80% 30.32 in 7.0 mi East 4.6 mph - N/A   Scattered Clouds